MDT,Max TemperatureF,Mean TemperatureF,Min TemperatureF,Max Dew PointF,MeanDew PointF,Min DewpointF,Max Humidity, Mean Humidity, Min Humidity, Max Sea Level PressureIn, Mean Sea Level PressureIn, Min Sea Level PressureIn, Max VisibilityMiles, Mean VisibilityMiles, Min VisibilityMiles, Max Wind SpeedMPH, Mean Wind SpeedMPH, Max Gust SpeedMPH,PrecipitationIn, CloudCover, Events, WindDirDegrees
2012-7-1,100,78,55,37,22,2,33,18,3,29.78,29.68,29.58,10,10,8,22,9,32,0.00,0,,261
2012-7-2,94,79,64,47,40,30,45,28,11,30.00,29.76,29.67,10,10,10,20,10,37,0.00,0,,46
2012-7-3,97,79,60,37,27,12,37,21,5,29.82,29.68,29.57,10,10,7,22,10,38,0.00,0,,252
2012-7-4,96,76,56,42,30,19,35,21,7,29.93,29.72,29.65,10,10,4,15,7,21,0.00,0,,306
2012-7-5,90,77,63,54,41,36,37,29,21,29.94,29.77,29.68,10,10,10,25,12,36,T,3,Thunderstorm,11
2012-7-6,85,70,54,44,40,33,54,36,17,30.11,30.04,29.94,10,10,10,13,6,22,0.00,2,,64
2012-7-7,89,77,64,41,34,23,40,25,9,30.17,30.11,30.03,10,10,10,14,8,25,0.00,0,,74
2012-7-8,90,74,57,44,36,26,51,32,12,30.17,30.11,30.03,10,10,10,9,6,30,0.00,0,,10
2012-7-9,92,75,57,46,38,30,51,31,11,30.31,30.07,29.99,10,10,10,12,6,23,0.00,0,,25
2012-7-10,92,75,58,49,40,31,62,39,15,30.26,30.04,29.93,10,10,9,13,7,54,T,0,Rain-Thunderstorm,286
2012-7-11,91,76,60,43,40,36,44,30,15,30.20,29.98,29.87,10,10,4,32,8,61,T,0,,344
2012-7-12,92,74,55,45,38,29,62,36,10,30.04,29.96,29.87,10,10,10,15,7,,0.00,0,,52
2012-7-13,97,78,59,39,33,28,46,28,9,30.07,29.89,29.79,10,10,10,12,7,33,T,1,,12
2012-7-14,89,79,69,56,45,39,61,41,21,30.10,29.85,29.76,10,10,10,27,15,41,T,2,,226
2012-7-15,90,77,64,54,44,30,63,38,13,29.97,29.79,29.73,10,10,10,14,9,24,0.00,2,,204
2012-7-16,89,74,58,52,44,38,63,41,18,29.85,29.78,29.71,10,10,10,15,8,30,0.00,1,,355
2012-7-17,87,73,58,49,42,33,64,40,16,30.05,29.84,29.79,10,10,10,23,7,30,0.00,1,Thunderstorm,311
2012-7-18,94,77,60,49,37,27,55,33,10,29.95,29.88,29.83,10,10,10,13,7,21,0.00,0,,327
2012-7-19,97,81,65,42,35,32,34,23,11,30.20,29.94,29.87,10,10,10,15,9,18,T,0,,341
2012-7-20,91,80,69,52,41,34,38,27,16,30.23,29.99,29.89,10,10,10,13,6,21,0.01,2,Rain-Thunderstorm,49
2012-7-21,94,79,63,57,50,40,67,42,17,30.27,30.02,29.91,10,10,9,23,8,67,T,2,Rain-Thunderstorm,325
2012-7-22,92,76,60,57,49,40,63,41,18,30.23,30.03,29.90,10,10,2,10,5,44,0.03,2,Rain-Thunderstorm,212
2012-7-23,92,76,59,55,47,38,78,47,15,30.19,29.93,29.81,10,10,10,15,7,,T,0,,323
2012-7-24,91,76,60,55,47,41,58,39,19,30.08,29.85,29.75,10,10,6,17,8,21,T,3,Rain-Thunderstorm,287
2012-7-25,87,74,61,49,44,39,56,38,20,30.07,29.88,29.80,10,10,10,28,8,35,T,2,Thunderstorm,7
2012-7-26,88,72,56,47,38,30,60,37,14,30.12,29.96,29.89,10,10,10,14,7,17,T,0,Thunderstorm,55
2012-7-27,88,72,55,51,40,27,48,33,18,30.18,29.96,29.85,10,10,10,30,9,43,T,1,Rain-Thunderstorm,326
2012-7-28,95,75,55,49,40,26,66,38,9,30.24,30.01,29.88,10,10,10,14,7,16,0.00,0,Thunderstorm,351
2012-7-29,94,78,61,47,38,20,52,30,7,30.01,29.95,29.88,10,10,10,18,7,17,0.00,0,,26
2012-7-30,90,75,60,48,42,34,60,38,15,30.03,29.96,29.89,10,10,10,23,9,37,0.00,0,,173
2012-7-31,94,78,62,44,36,27,52,31,9,30.14,29.93,29.85,10,10,10,21,11,30,0.00,0,,239